Вернуться в каталог

CZ-4C R/B

АктивенSSO
NORAD 53699·ROCKET BODY·🇨🇳 China

Запущен Sep 2, 2022 с Jiuquan Satellite Launch Center

Loading…

Ближайшие Пролёты (ближайшие 24 часа)

TLE

СвежийSource: Space-Track

Эпоха: Sep 14, 2026, 05:55 UTC

1 53699U 22106B   26257.24693576  .00002591  00000-0  17293-3 0  9999
2 53699  98.0469 343.8593 0107310 212.0118 147.4559 15.03404560220302

Отслеживайте CZ-4C R/B в реальном времени с AllMySat

Download on the App Store